Fort Campbell, TN

4:49 PM CDT on August 27, 2016 (GMT -0500)
Outlaw

Weather History for KCKV - July, 2013

Change the Weather History Date:

Friday, July 26, 2013

  Actual Average Record
Temperature  
Mean Temperature 71 °F 78 °F  
Max Temperature 82 °F 89 °F 108 °F (1952)
Min Temperature 59 °F 67 °F 54 °F (1970)
Degree Days  
Heating Degree Days 0 0  
Month to date heating degree days 0 0  
Since 1 June heating degree days 3  
Since 1 July heating degree days 0 0  
Cooling Degree Days 6 13  
Month to date cooling degree days 294 338  
Year to date cooling degree days 773  
Since 1 June cooling degree days 624  
Growing Degree Days 21 (Base 50)    
Moisture  
Dew Point 62 °F    
Average Humidity 74    
Maximum Humidity 97    
Minimum Humidity 51    
Precipitation  
Precipitation T in 0.13 in 2.20 in (1973)
Month to date precipitation 3.10 3.32  
Year to date precipitation 29.42  
Sea Level Pressure  
Sea Level Pressure 30.03 in    
Wind  
Wind Speed 4 mph (West)    
Max Wind Speed 12 mph    
Max Gust Speed 15 mph    
Visibility 9 miles    
Events      
T = Trace of Precipitation, MM = Missing Value Source: NWS Daily Summary

Daily Weather History Graph

Daily Weather History Graph

Search for Another Location

Airport or City:

Trip Planner

Search our weather history database for the weather conditions in past years. The results will help you decide how hot, cold, wet, or windy it might be!

Date:

Astronomy

Jul. 26, 2013 Rise Set
Actual Time 5:51 AM CDT 8:00 PM CDT
Civil Twilight 5:22 AM CDT 8:29 PM CDT
Nautical Twilight 4:46 AM CDT 9:05 PM CDT
Astronomical Twilight 4:08 AM CDT 9:43 PM CDT
Moon 10:24 PM CDT (7/26) 10:17 AM CDT (7/26)
Length of Visible Light 15h 07m
Length of Day
14h 09m
Waning Gibbous, 80% of the Moon is Illuminated
Jul 26
Waning Gibbous
Jul 29
Last Quarter
Aug 6
New
Aug 14
First Quarter
Aug 20
Full

Hourly Weather History & Observations

Time (CDT) Temp. Heat Index Dew Point Humidity Pressure Visibility Wind Dir Wind Speed Gust Speed Precip Events Conditions
12:52 AM 63.0 °F - 60.1 °F 90% 30.06 in 10.0 mi Calm Calm - N/A   Clear
1:52 AM 62.1 °F - 60.1 °F 93% 30.06 in 10.0 mi Calm Calm - N/A   Clear
2:52 AM 62.1 °F - 60.1 °F 93% 30.05 in 6.0 mi Calm Calm - N/A   Clear
3:52 AM 60.1 °F - 59.0 °F 96% 30.04 in 6.0 mi Calm Calm - N/A   Clear
4:52 AM 60.1 °F - 57.9 °F 93% 30.04 in 6.0 mi Calm Calm - N/A   Clear
5:52 AM 60.1 °F - 57.9 °F 93% 30.04 in 4.0 mi Calm Calm - N/A   Clear
6:52 AM 62.1 °F - 60.1 °F 93% 30.06 in 6.0 mi West 3.5 mph - N/A   Clear
7:52 AM 68.0 °F - 62.1 °F 81% 30.07 in 10.0 mi Calm Calm - N/A   Clear
8:52 AM 72.0 °F - 63.0 °F 73% 30.06 in 10.0 mi Calm Calm - N/A   Clear
9:52 AM 75.0 °F - 63.0 °F 66% 30.06 in 10.0 mi Calm Calm - N/A   Clear
10:52 AM 78.1 °F - 62.1 °F 58% 30.06 in 10.0 mi SW 4.6 mph - N/A   Clear
11:52 AM 78.1 °F - 63.0 °F 60% 30.05 in 10.0 mi West 5.8 mph - N/A   Mostly Cloudy
12:52 PM 81.0 °F 82.5 °F 64.0 °F 56% 30.05 in 10.0 mi SW 8.1 mph - N/A   Clear
1:52 PM 81.0 °F 82.2 °F 63.0 °F 54% 30.04 in 10.0 mi WSW 5.8 mph - N/A   Partly Cloudy
2:52 PM 82.0 °F 83.4 °F 64.0 °F 54% 30.04 in 10.0 mi West 10.4 mph - N/A   Clear
3:52 PM 81.0 °F 81.7 °F 61.0 °F 50% 30.02 in 10.0 mi West 5.8 mph - N/A   Clear
4:52 PM 80.1 °F 81.2 °F 62.1 °F 54% 30.02 in 10.0 mi West 6.9 mph - N/A   Clear
5:52 PM 79.0 °F - 62.1 °F 56% 30.01 in 10.0 mi WNW 9.2 mph - N/A   Clear
6:52 PM 77.0 °F - 60.1 °F 56% 30.01 in 10.0 mi NW 10.4 mph - N/A   Clear
7:52 PM 75.0 °F - 61.0 °F 62% 30.01 in 10.0 mi NW 6.9 mph - N/A   Clear
8:52 PM 73.0 °F - 63.0 °F 71% 29.99 in 10.0 mi WNW 3.5 mph - N/A   Partly Cloudy
9:52 PM 70.0 °F - 64.9 °F 84% 30.00 in 10.0 mi Calm Calm - N/A   Overcast
10:52 PM 69.1 °F - 64.9 °F 87% 29.99 in 10.0 mi Calm Calm - N/A   Clear
11:52 PM 69.1 °F - 64.9 °F 87% 29.96 in 10.0 mi East 5.8 mph - N/A   Scattered Clouds